Regional Weather Roundup
Issued by NWS Glasgow, MT

Home | Current Version | Previous Version | Text Only | Print | Product List | Glossary On
Versions: 1 2 3 4 5 6 7 8 9 10 11 12 13 14 15 16 17 18 19 20 21 22 23 24 25 26 27 28 29 30 31 32 33 34 35 36 37 38 39 40 41 42 43 44 45 46 47 48 49 50
000
ASUS45 KGGW 251615
RWRGGW
HOURLY REGIONAL WEATHER ROUNDUP FOR NORTHEAST MONTANA
NATIONAL WEATHER SERVICE GLASGOW MONTANA
1000 AM MDT TUE JUL 25 2017

NOTE: "FAIR" INDICATES FEW OR NO CLOUDS BELOW 12,000 FEET WITH NO
SIGNIFICANT WEATHER AND/OR OBSTRUCTIONS TO VISISBILITY.

NORTHEAST MONTANA


CITY           SKY/WX    TMP DP  RH WIND       PRES   REMARKS
GLASGOW        SUNNY     67  48  50 NW10      30.09R
PLENTYWOOD       N/A     68  44  42 NW16G24     N/A
WOLF POINT     MOSUNNY   76  44  32 NW9       30.06R
JORDAN         NOT AVBL
WINNETT          N/A     70  35  27 NE8         N/A
SIDNEY         MOSUNNY   74  46  36 N13       30.04R
GLENDIVE       MOSUNNY   75  42  30 N13       30.05S
MALTA            N/A     69  42  37 NW6         N/A
SCOBEY           N/A     68  44  42 NW8       30.04R

FORT PECK REPORTS


CITY           SKY/WX    TMP DP  RH WIND       PRES   REMARKS
FORT PECK        N/A     66  47  50 W13         N/A
THE PINES        N/A     68  42  38 N6          N/A

SOUTHEAST MONTANA


CITY           SKY/WX    TMP DP  RH WIND       PRES   REMARKS
BILLINGS       CLOUDY    68  37  32 NE13      30.16R
MILES CITY     MOSUNNY   77  37  23 NE9       30.06R
BAKER          CLOUDY    78  40  25 NE20G30   30.05R
LIVINGSTON     NOT AVBL

CENTRAL MONTANA


CITY           SKY/WX    TMP DP  RH WIND       PRES   REMARKS
HAVRE          SUNNY     66  41  40 NW8       30.14S
LEWISTOWN      SUNNY     66  36  32 CALM      30.18R
GREAT FALLS    SUNNY     63  38  39 VRB5      30.17F
CUT BANK       SUNNY     63  37  38 VRB6      30.16F
HELENA         CLOUDY    66  39  37 W6        30.17S
BUTTE          MOSUNNY   67  36  31 VRB3      30.19S
BOZEMAN        CLOUDY    67  44  43 W8        30.15S

WESTERN MONTANA


CITY           SKY/WX    TMP DP  RH WIND       PRES   REMARKS
MISSOULA       SUNNY     70  35  27 N5        30.07F
KALISPELL      NOT AVBL

NORTH DAKOTA


CITY           SKY/WX    TMP DP  RH WIND       PRES   REMARKS
WILLISTON      SUNNY     74  47  38 NW14      30.02R
DICKINSON      CLOUDY    77  43  29 N16       29.98S
MINOT          CLOUDY    74  49  41 NW16G23   29.96R
BISMARCK       CLOUDY    77  60  55 N13G22    29.93R

SOUTHERN SASKATCHEWAN


CITY           SKY/WX    TMP DP  RH WIND       PRES   REMARKS
REGINA         MOSUNNY   64  54  68 W21       29.94F
MOOSE JAW      MOSUNNY   68  52  56 W23G29    29.98R
ESTEVAN        MOSUNNY   68  52  56 W17       29.97R
SWIFT CURRENT  SUNNY     66  48  52 NW17G24   30.06R




USA.gov is the U.S. government's official web portal to all federal, state and local government web resources and services.